Location: Aboncourt
(47.7710°N, 5.9826°E)
Time: 02:58:18
(UTC+00:00)

ATLAS 2AS CENTAUR R/B - Pass Details

Date: 05 July 2020
Orbit: 930 x 1282 km, 63.7° (Epoch: 19 July)

Event Time Altitude Azimuth Distance (km) Brightness Sun altitude
Rises 20:40:10 0° 315° (NW) 4,226 8.3 -8.7°
Reaches altitude 10° 20:43:19 10° 323° (NW) 3,225 6.9 -9.1°
Maximum altitude 20:50:27 38° 29° (NNE) 1,753 4.1 -9.8°
Drops below altitude 10° 20:57:06 10° 96° (E) 3,002 4.6 -10.5°
Enters shadow 20:58:54 - 102° (ESE) 3,568 5.0 -10.7°
